Content
SEND FEEDBACK

Daily
Averages
Monthly
Summary
Jamaica

MONTEGO BAY, JAMAICA


Home > Caribbean > Jamaica
Elevation: 10 feet     Latitude: 18 30N     Longitude: 077 55W

WEATHER
 
SELECT A DAY
Number of Records: 168,021;   Date Range: 7/1/96 - 7/23/14
 
SHARE

PRINT THIS DATA

[ ← Previous Day ]
WEATHER ALMANAC - JULY 6, 2013
[ Next Day → ]
[ °C ]   °F
Weather ElementAverageHighLow
Temperature82.7 °F89.6 °F (11:00 am)78 °F (4:00 am)
Dewpoint74.5 °F78.8 °F (1:00 pm)71.6 °F (2:00 am)
Humidity75.2 %89 % (11:00 pm)56 % (10:00 am)
Barometer29.94 in29.98 in (10:00 pm)29.86 in (4:00 pm)
Wind Speed7.1 mph17.3 mph (11:00 am)
Weather ElementAverage
Visibility8.3 mi
Wind DirectionESE (107 °)

Weather ElementTotal
Precipitation---
Cooling Degree Days18.8 (Base 65)
Growing Degree Days33.8 (Base 50)
Averaged from 32 records on July 6, 2013
WEATHER CONDITIONS BREAKOUT
WIND DIRECTION BREAKOUT
WEATHER BY HOUR - JULY 6, 2013
[ °C ]   °F
Local TimeTemperatureDewpointHumidityBarometerVisibilityWind DirectionWind SpeedGust SpeedPrecipitationEventsConditions
1:00 AM79.0 °F73.0 °F78 %29.96 in12.0 miSE (140°)3.5 mphScattered Clouds
1:00 AM78.8 °F73.4 °F83 %29.95 in6.2 miSE (140°)3.5 mphPartly Cloudy
2:00 AM78.8 °F71.6 °F78 %29.95 in6.2 miCalmPartly Cloudy
3:00 AM78.8 °F71.6 °F78 %29.95 in6.2 miCalmScattered Clouds
4:00 AM78.0 °F72.0 °F75 %29.95 in12.0 miCalmScattered Clouds
4:00 AM78.8 °F71.6 °F78 %29.95 in6.2 miCalmPartly Cloudy
5:00 AM78.8 °F73.4 °F83 %29.95 in6.2 miSSE (150°)5.8 mphScattered Clouds
6:00 AM78.8 °F71.6 °F78 %29.95 in6.2 miSE (130°)5.8 mphPartly Cloudy
7:00 AM80.6 °F73.4 °F79 %29.95 in6.2 miSSE (150°)6.9 mphPartly Cloudy
7:00 AM81.0 °F73.0 °F70 %29.96 in16.0 miSSE (150°)6.9 mphHaze
8:00 AM84.2 °F73.4 °F70 %29.95 in6.2 miEast (90°)11.5 mphPartly Cloudy
9:00 AM87.8 °F75.2 °F66 %29.95 in6.2 miEast (90°)5.8 mphPartly Cloudy
10:00 AM88.0 °F74.0 °F56 %29.97 in17.0 miEast (80°)9.2 mphHaze
10:00 AM87.8 °F75.2 °F66 %29.95 in6.2 miEast (80°)9.2 mphPartly Cloudy
11:00 AM89.6 °F75.2 °F62 %29.95 in6.2 miEast (90°)17.3 mphScattered Clouds
12:00 PM89.6 °F73.4 °F59 %29.95 in6.2 miEast (90°)13.8 mphPartly Cloudy
1:00 PM87.8 °F78.8 °F75 %29.92 in6.2 miENE (60°)15.0 mphPartly Cloudy
1:00 PM87.0 °F78.0 °F68 %29.94 in17.0 miENE (60°)15.0 mphHaze
2:00 PM86.0 °F78.8 °F79 %29.89 in6.2 miENE (60°)13.8 mphPartly Cloudy
3:00 PM86.0 °F78.8 °F79 %29.89 in6.2 miENE (60°)17.3 mphPartly Cloudy
4:00 PM84.0 °F78.0 °F76 %29.88 in17.0 miEast (80°)16.1 mphHaze
4:00 PM84.2 °F77.0 °F79 %29.86 in6.2 miEast (80°)16.1 mphScattered Clouds
5:00 PM84.2 °F77.0 °F79 %29.89 in6.2 miEast (100°)8.1 mphMostly Cloudy
5:15 PM84.2 °F77.0 °F79 %29.89 in6.2 miEast (100°)8.1 mphMostly Cloudy
6:00 PM82.4 °F75.2 °F79 %29.92 in6.2 miSouth (190°)3.5 mphPartly Cloudy
7:00 PM81.0 °F73.0 °F72 %29.92 in14.0 miCalmScattered Clouds
7:00 PM80.6 °F73.4 °F79 %29.92 in6.2 miCalmPartly Cloudy
8:00 PM80.6 °F73.4 °F79 %29.95 in6.2 miWest (260°)3.5 mphThunderstormScattered Clouds
9:00 PM80.6 °F73.4 °F79 %29.95 in6.2 miSW (220°)4.6 mphThunderstormScattered Clouds
10:00 PM80.0 °F74.0 °F76 %29.98 in12.0 miSW (220°)3.5 mphPartly Cloudy
10:00 PM80.6 °F73.4 °F79 %29.98 in6.2 miSW (220°)3.5 mphThunderstormPartly Cloudy
11:00 PM78.8 °F75.2 °F89 %29.98 in6.2 miESE (120°)1.2 mphPartly Cloudy
Hourly data recorded from MKJS, located miles away from Montego Bay, Jamaica







STORIES FROM OUR PARTNERS